Time,TemperatureF,DewpointF,PressureIn,WindDirection,WindDirectionDegrees,WindSpeedMPH,WindSpeedGustMPH,Humidity,HourlyPrecipIn,Conditions,Clouds,dailyrainin,SolarRadiationWatts/m^2,SoftwareType,DateUTC
2013-05-25 00:01:00,51.7,47.3,30.01,WSW,244,0.0,0.0,85,0.00,,,0.00,0,WeatherCatV1.14B232,2013-05-25 07:01:00,
2013-05-25 00:06:00,51.7,47.6,30.01,WSW,244,0.0,0.0,86,0.00,,,0.00,0,WeatherCatV1.14B232,2013-05-25 07:06:00,
2013-05-25 00:11:00,51.7,47.6,30.01,WSW,244,0.0,0.0,86,0.00,,,0.00,0,WeatherCatV1.14B232,2013-05-25 07:11:00,
2013-05-25 00:16:00,51.7,47.6,30.01,WSW,244,0.0,0.0,86,0.00,,,0.00,0,WeatherCatV1.14B232,2013-05-25 07:16:00,
2013-05-25 00:21:00,51.7,47.6,30.01,WSW,244,0.0,0.0,86,0.00,,,0.00,0,WeatherCatV1.14B232,2013-05-25 07:21:00,
2013-05-25 00:26:00,51.6,47.5,30.01,WSW,244,0.0,0.0,86,0.00,,,0.00,0,WeatherCatV1.14B232,2013-05-25 07:26:00,
2013-05-25 00:31:00,51.6,47.5,30.01,WSW,244,0.0,0.0,86,0.00,,,0.00,0,WeatherCatV1.14B232,2013-05-25 07:31:00,
2013-05-25 00:36:00,51.6,47.9,30.01,WSW,244,0.0,0.0,87,0.00,,,0.00,0,WeatherCatV1.14B232,2013-05-25 07:36:00,
2013-05-25 00:41:00,51.4,47.7,30.01,WSW,244,0.0,0.0,87,0.00,,,0.00,0,WeatherCatV1.14B232,2013-05-25 07:41:00,
2013-05-25 00:46:00,51.4,47.7,30.01,WSW,244,0.0,0.0,87,0.00,,,0.00,0,WeatherCatV1.14B232,2013-05-25 07:46:00,
2013-05-25 00:51:00,51.4,47.7,30.01,WSW,244,0.0,0.0,87,0.00,,,0.00,0,WeatherCatV1.14B232,2013-05-25 07:51:00,
2013-05-25 00:56:00,51.3,47.6,30.01,WSW,244,0.0,0.0,87,0.00,,,0.00,0,WeatherCatV1.14B232,2013-05-25 07:56:00,
2013-05-25 01:01:00,51.3,47.6,30.00,WSW,244,0.0,0.0,87,0.00,,,0.00,0,WeatherCatV1.14B232,2013-05-25 08:01:00,
2013-05-25 01:06:00,51.3,47.9,30.00,WSW,244,0.0,0.0,88,0.00,,,0.00,0,WeatherCatV1.14B232,2013-05-25 08:06:00,
2013-05-25 01:11:00,51.1,47.7,30.00,WSW,244,0.0,0.0,88,0.00,,,0.00,0,WeatherCatV1.14B232,2013-05-25 08:11:00,
2013-05-25 01:16:00,51.1,47.7,30.00,WSW,244,0.0,0.0,88,0.00,,,0.00,0,WeatherCatV1.14B232,2013-05-25 08:16:00,
2013-05-25 01:21:00,51.0,47.6,30.00,WSW,244,0.0,0.0,88,0.00,,,0.00,0,WeatherCatV1.14B232,2013-05-25 08:21:00,
2013-05-25 01:26:00,51.0,47.6,30.00,WSW,244,0.0,0.0,88,0.00,,,0.00,0,WeatherCatV1.14B232,2013-05-25 08:26:00,
2013-05-25 01:31:00,51.0,47.6,30.00,WSW,244,0.0,0.0,88,0.00,,,0.00,0,WeatherCatV1.14B232,2013-05-25 08:31:00,
2013-05-25 01:36:00,50.8,47.7,30.00,WSW,244,0.0,0.0,89,0.00,,,0.00,0,WeatherCatV1.14B232,2013-05-25 08:36:00,
2013-05-25 01:41:00,50.8,47.7,30.00,WSW,244,0.0,0.0,89,0.00,,,0.00,0,WeatherCatV1.14B232,2013-05-25 08:41:00,
2013-05-25 01:46:00,50.7,47.6,30.00,WSW,244,0.0,0.0,89,0.00,,,0.00,0,WeatherCatV1.14B232,2013-05-25 08:46:00,
2013-05-25 01:51:00,50.7,47.6,30.00,WSW,244,0.0,0.0,89,0.00,,,0.00,0,WeatherCatV1.14B232,2013-05-25 08:51:00,
2013-05-25 01:56:00,50.5,47.7,30.00,WSW,244,0.0,0.0,90,0.00,,,0.00,0,WeatherCatV1.14B232,2013-05-25 08:56:00,
2013-05-25 02:01:00,50.5,47.7,30.00,East,89,0.0,2.0,90,0.00,,,0.00,0,WeatherCatV1.14B232,2013-05-25 09:01:00,
2013-05-25 02:06:00,50.4,47.6,30.00,East,89,0.0,0.0,90,0.00,,,0.00,0,WeatherCatV1.14B232,2013-05-25 09:06:00,
2013-05-25 02:11:00,50.4,47.6,30.00,East,89,0.0,0.0,90,0.00,,,0.00,0,WeatherCatV1.14B232,2013-05-25 09:11:00,
2013-05-25 02:16:00,50.2,47.7,30.00,East,90,0.0,0.0,91,0.00,,,0.01,0,WeatherCatV1.14B232,2013-05-25 09:16:00,
2013-05-25 02:21:00,50.2,47.7,30.00,East,90,0.0,0.0,91,0.00,,,0.01,0,WeatherCatV1.14B232,2013-05-25 09:21:00,
2013-05-25 02:26:00,50.1,47.6,30.00,ENE,73,0.0,2.0,91,0.00,,,0.01,0,WeatherCatV1.14B232,2013-05-25 09:26:00,
2013-05-25 02:31:00,50.1,47.9,30.00,ENE,73,0.0,1.0,92,0.04,,,0.02,0,WeatherCatV1.14B232,2013-05-25 09:31:00,
2013-05-25 02:36:00,49.9,47.7,30.00,ENE,73,0.0,0.0,92,0.04,,,0.02,0,WeatherCatV1.14B232,2013-05-25 09:36:00,
2013-05-25 02:41:00,49.9,47.7,30.00,ENE,73,0.0,0.0,92,0.04,,,0.02,0,WeatherCatV1.14B232,2013-05-25 09:41:00,
2013-05-25 02:46:00,49.8,47.6,30.00,ENE,73,0.0,0.0,92,0.04,,,0.02,0,WeatherCatV1.14B232,2013-05-25 09:46:00,
2013-05-25 02:51:00,49.8,47.6,30.00,ENE,73,0.0,0.0,92,0.00,,,0.02,0,WeatherCatV1.14B232,2013-05-25 09:51:00,
2013-05-25 02:56:00,49.8,47.6,30.00,ENE,73,0.0,0.0,92,0.00,,,0.02,0,WeatherCatV1.14B232,2013-05-25 09:56:00,
2013-05-25 03:01:00,49.6,47.7,30.00,ENE,73,0.0,0.0,93,0.00,,,0.02,0,WeatherCatV1.14B232,2013-05-25 10:01:00,
2013-05-25 03:06:00,49.6,47.7,30.00,ENE,73,0.0,2.0,93,0.00,,,0.02,0,WeatherCatV1.14B232,2013-05-25 10:06:00,
2013-05-25 03:11:00,49.5,47.6,30.00,ENE,73,0.0,0.0,93,0.00,,,0.02,0,WeatherCatV1.14B232,2013-05-25 10:11:00,
2013-05-25 03:16:00,49.5,47.6,30.00,ENE,73,0.0,0.0,93,0.00,,,0.02,0,WeatherCatV1.14B232,2013-05-25 10:16:00,
2013-05-25 03:21:00,49.5,47.6,30.00,ENE,73,0.0,0.0,93,0.00,,,0.02,0,WeatherCatV1.14B232,2013-05-25 10:21:00,
2013-05-25 03:26:00,49.4,47.5,30.00,ENE,73,0.0,0.0,93,0.00,,,0.02,0,WeatherCatV1.14B232,2013-05-25 10:26:00,
2013-05-25 03:31:00,49.4,47.5,30.00,ENE,73,0.0,0.0,93,0.00,,,0.02,0,WeatherCatV1.14B232,2013-05-25 10:31:00,
2013-05-25 03:36:00,49.2,47.3,30.00,ENE,73,0.0,0.0,93,0.00,,,0.02,0,WeatherCatV1.14B232,2013-05-25 10:36:00,
2013-05-25 03:41:00,49.2,47.3,30.00,ENE,73,0.0,0.0,93,0.00,,,0.03,0,WeatherCatV1.14B232,2013-05-25 10:41:00,
2013-05-25 03:46:00,49.2,47.3,30.00,ENE,73,0.0,0.0,93,0.10,,,0.04,0,WeatherCatV1.14B232,2013-05-25 10:46:00,
2013-05-25 03:51:00,49.1,47.2,30.00,ENE,73,0.0,0.0,93,0.10,,,0.04,0,WeatherCatV1.14B232,2013-05-25 10:51:00,
2013-05-25 03:56:00,49.1,47.4,30.00,ENE,73,0.0,0.0,94,0.06,,,0.04,0,WeatherCatV1.14B232,2013-05-25 10:56:00,
2013-05-25 04:01:00,48.9,47.2,30.00,ENE,73,0.0,0.0,94,0.04,,,0.04,0,WeatherCatV1.14B232,2013-05-25 11:01:00,
2013-05-25 04:06:00,48.9,47.2,30.00,ENE,73,0.0,0.0,94,0.00,,,0.04,0,WeatherCatV1.14B232,2013-05-25 11:06:00,
2013-05-25 04:11:00,48.9,47.2,30.00,ENE,73,0.0,0.0,94,0.00,,,0.04,0,WeatherCatV1.14B232,2013-05-25 11:11:00,
2013-05-25 04:16:00,48.8,47.2,30.00,ENE,73,0.0,0.0,94,0.00,,,0.04,0,WeatherCatV1.14B232,2013-05-25 11:16:00,
2013-05-25 04:21:00,48.8,47.2,30.00,ENE,73,0.0,0.0,94,0.00,,,0.04,0,WeatherCatV1.14B232,2013-05-25 11:21:00,
2013-05-25 04:26:00,48.6,47.0,30.00,ENE,73,0.0,0.0,94,0.00,,,0.04,0,WeatherCatV1.14B232,2013-05-25 11:26:00,
2013-05-25 04:31:00,48.5,46.9,29.99,ENE,73,0.0,0.0,94,0.00,,,0.04,0,WeatherCatV1.14B232,2013-05-25 11:31:00,
2013-05-25 04:36:00,48.5,46.9,29.99,ENE,73,0.0,2.0,94,0.00,,,0.04,0,WeatherCatV1.14B232,2013-05-25 11:36:00,
2013-05-25 04:41:00,48.3,46.7,29.99,ENE,73,0.0,0.0,94,0.00,,,0.04,0,WeatherCatV1.14B232,2013-05-25 11:41:00,
2013-05-25 04:46:00,48.3,46.7,29.99,ENE,73,0.0,1.0,94,0.00,,,0.04,0,WeatherCatV1.14B232,2013-05-25 11:46:00,
2013-05-25 04:51:00,48.3,46.7,29.99,ENE,73,0.0,0.0,94,0.00,,,0.04,0,WeatherCatV1.14B232,2013-05-25 11:51:00,
2013-05-25 04:56:00,48.3,46.9,29.99,ENE,78,0.0,0.0,95,0.00,,,0.04,0,WeatherCatV1.14B232,2013-05-25 11:56:00,
2013-05-25 05:01:00,48.3,46.9,29.99,ENE,78,0.0,0.0,95,0.00,,,0.04,0,WeatherCatV1.14B232,2013-05-25 12:01:00,
2013-05-25 05:06:00,48.3,46.9,29.99,ENE,78,0.0,2.0,95,0.00,,,0.04,0,WeatherCatV1.14B232,2013-05-25 12:06:00,
2013-05-25 05:11:00,48.3,46.9,29.99,ENE,78,0.0,2.0,95,0.00,,,0.04,0,WeatherCatV1.14B232,2013-05-25 12:11:00,
2013-05-25 05:16:00,48.3,46.9,29.99,ENE,78,0.0,1.0,95,0.00,,,0.04,0,WeatherCatV1.14B232,2013-05-25 12:16:00,
2013-05-25 05:21:00,48.3,46.9,29.99,ENE,78,0.0,0.0,95,0.00,,,0.04,5,WeatherCatV1.14B232,2013-05-25 12:21:00,
2013-05-25 05:26:00,48.3,46.9,29.99,ENE,78,0.0,0.0,95,0.00,,,0.04,5,WeatherCatV1.14B232,2013-05-25 12:26:00,
2013-05-25 05:31:00,48.3,46.9,29.99,ENE,78,0.0,0.0,95,0.00,,,0.04,7,WeatherCatV1.14B232,2013-05-25 12:31:00,
2013-05-25 05:36:00,48.3,46.9,29.99,ENE,78,0.0,0.0,95,0.00,,,0.04,11,WeatherCatV1.14B232,2013-05-25 12:36:00,
2013-05-25 05:41:00,48.3,46.9,29.99,ENE,78,0.0,0.0,95,0.00,,,0.04,14,WeatherCatV1.14B232,2013-05-25 12:41:00,
2013-05-25 05:46:00,48.3,46.9,30.00,ENE,78,0.0,0.0,95,0.00,,,0.04,12,WeatherCatV1.14B232,2013-05-25 12:46:00,
2013-05-25 05:51:00,48.3,46.9,30.00,ENE,78,0.0,0.0,95,0.00,,,0.04,16,WeatherCatV1.14B232,2013-05-25 12:51:00,
2013-05-25 05:56:00,48.3,46.9,30.00,ENE,78,0.0,0.0,95,0.00,,,0.04,21,WeatherCatV1.14B232,2013-05-25 12:56:00,
2013-05-25 06:01:00,48.3,46.9,30.00,ENE,78,0.0,0.0,95,0.00,,,0.04,25,WeatherCatV1.14B232,2013-05-25 13:01:00,
2013-05-25 06:06:00,48.3,46.9,30.00,ENE,78,0.0,0.0,95,0.00,,,0.04,28,WeatherCatV1.14B232,2013-05-25 13:06:00,
2013-05-25 06:11:00,48.2,46.8,30.00,ENE,78,0.0,0.0,95,0.00,,,0.04,28,WeatherCatV1.14B232,2013-05-25 13:11:00,
2013-05-25 06:16:00,48.2,46.8,30.00,ENE,78,0.0,0.0,95,0.00,,,0.04,35,WeatherCatV1.14B232,2013-05-25 13:16:00,
2013-05-25 06:21:00,48.2,46.8,30.00,ENE,78,0.0,0.0,95,0.00,,,0.04,47,WeatherCatV1.14B232,2013-05-25 13:21:00,
2013-05-25 06:26:00,48.0,46.6,30.00,ENE,78,0.0,0.0,95,0.00,,,0.04,58,WeatherCatV1.14B232,2013-05-25 13:26:00,
2013-05-25 06:31:00,48.0,46.6,30.00,ENE,78,0.0,0.0,95,0.00,,,0.04,72,WeatherCatV1.14B232,2013-05-25 13:31:00,
2013-05-25 06:36:00,48.0,46.6,30.00,ENE,78,0.0,0.0,95,0.00,,,0.04,81,WeatherCatV1.14B232,2013-05-25 13:36:00,
2013-05-25 06:41:00,48.2,46.8,30.00,ENE,78,0.0,0.0,95,0.00,,,0.04,81,WeatherCatV1.14B232,2013-05-25 13:41:00,
2013-05-25 06:46:00,48.2,46.8,30.00,ENE,78,0.0,0.0,95,0.00,,,0.04,84,WeatherCatV1.14B232,2013-05-25 13:46:00,
2013-05-25 06:51:00,48.3,47.2,30.00,ENE,78,0.0,0.0,96,0.00,,,0.04,84,WeatherCatV1.14B232,2013-05-25 13:51:00,
2013-05-25 06:56:00,48.5,47.4,30.00,ENE,78,0.0,0.0,96,0.00,,,0.04,77,WeatherCatV1.14B232,2013-05-25 13:56:00,
2013-05-25 07:01:00,48.6,47.5,30.00,ENE,78,0.0,0.0,96,0.00,,,0.04,74,WeatherCatV1.14B232,2013-05-25 14:01:00,
2013-05-25 07:06:00,48.8,47.7,30.00,ENE,78,0.0,0.0,96,0.00,,,0.04,76,WeatherCatV1.14B232,2013-05-25 14:06:00,
2013-05-25 07:11:00,48.9,47.8,30.00,ENE,78,0.0,0.0,96,0.00,,,0.04,65,WeatherCatV1.14B232,2013-05-25 14:11:00,
2013-05-25 07:16:00,49.1,48.0,30.00,ENE,78,0.0,0.0,96,0.00,,,0.04,76,WeatherCatV1.14B232,2013-05-25 14:16:00,
2013-05-25 07:21:00,49.2,48.1,30.00,ENE,78,0.0,0.0,96,0.00,,,0.04,88,WeatherCatV1.14B232,2013-05-25 14:21:00,
2013-05-25 07:26:00,49.2,48.1,30.00,ENE,78,0.0,0.0,96,0.00,,,0.04,91,WeatherCatV1.14B232,2013-05-25 14:26:00,
2013-05-25 07:31:00,49.4,48.3,30.00,ENE,78,0.0,0.0,96,0.00,,,0.04,104,WeatherCatV1.14B232,2013-05-25 14:31:00,
2013-05-25 07:36:00,49.5,48.4,30.00,ENE,78,0.0,0.0,96,0.00,,,0.04,114,WeatherCatV1.14B232,2013-05-25 14:36:00,
2013-05-25 07:41:00,49.5,48.4,30.00,ENE,78,0.0,0.0,96,0.00,,,0.04,128,WeatherCatV1.14B232,2013-05-25 14:41:00,
2013-05-25 07:46:00,49.6,48.5,30.00,ENE,78,0.0,0.0,96,0.00,,,0.04,149,WeatherCatV1.14B232,2013-05-25 14:46:00,
2013-05-25 07:51:00,49.8,49.0,30.00,ENE,78,0.0,0.0,97,0.00,,,0.04,151,WeatherCatV1.14B232,2013-05-25 14:51:00,
2013-05-25 07:56:00,49.9,48.8,30.00,ENE,78,0.0,1.0,96,0.00,,,0.04,142,WeatherCatV1.14B232,2013-05-25 14:56:00,
2013-05-25 08:01:00,49.9,49.1,30.01,ENE,78,0.0,0.0,97,0.00,,,0.04,123,WeatherCatV1.14B232,2013-05-25 15:01:00,
2013-05-25 08:06:00,50.1,49.0,30.01,ENE,78,0.0,0.0,96,0.00,,,0.04,120,WeatherCatV1.14B232,2013-05-25 15:06:00,
2013-05-25 08:11:00,50.1,49.0,30.01,ENE,78,0.0,1.0,96,0.00,,,0.04,127,WeatherCatV1.14B232,2013-05-25 15:11:00,
2013-05-25 08:16:00,50.1,49.0,30.01,ENE,78,0.0,0.0,96,0.00,,,0.04,132,WeatherCatV1.14B232,2013-05-25 15:16:00,
2013-05-25 08:21:00,50.4,49.3,30.01,ENE,78,0.0,0.0,96,0.00,,,0.04,144,WeatherCatV1.14B232,2013-05-25 15:21:00,
2013-05-25 08:26:00,50.2,49.1,30.01,ESE,109,0.0,0.0,96,0.00,,,0.04,149,WeatherCatV1.14B232,2013-05-25 15:26:00,
2013-05-25 08:31:00,50.4,49.3,30.00,ESE,109,0.0,1.0,96,0.00,,,0.04,153,WeatherCatV1.14B232,2013-05-25 15:31:00,
2013-05-25 08:36:00,50.2,48.8,30.00,ENE,77,0.0,3.0,95,0.00,,,0.04,183,WeatherCatV1.14B232,2013-05-25 15:36:00,
2013-05-25 08:41:00,50.4,49.3,30.00,ENE,77,0.0,0.0,96,0.00,,,0.04,167,WeatherCatV1.14B232,2013-05-25 15:41:00,
2013-05-25 08:46:00,50.4,49.0,30.01,ENE,77,0.0,0.0,95,0.00,,,0.04,174,WeatherCatV1.14B232,2013-05-25 15:46:00,
2013-05-25 08:51:00,50.2,48.5,30.01,ESE,108,0.0,3.0,94,0.00,,,0.04,221,WeatherCatV1.14B232,2013-05-25 15:51:00,
2013-05-25 08:56:00,50.4,49.0,30.01,ESE,108,0.0,1.0,95,0.00,,,0.04,241,WeatherCatV1.14B232,2013-05-25 15:56:00,
2013-05-25 09:01:00,50.7,49.0,30.01,ENE,74,0.0,2.0,94,0.00,,,0.04,148,WeatherCatV1.14B232,2013-05-25 16:01:00,
2013-05-25 09:06:00,50.8,48.8,30.01,ENE,74,2.0,2.0,93,0.00,,,0.04,134,WeatherCatV1.14B232,2013-05-25 16:06:00,
2013-05-25 09:11:00,50.8,48.8,30.01,ENE,74,1.0,3.0,93,0.00,,,0.04,151,WeatherCatV1.14B232,2013-05-25 16:11:00,
2013-05-25 09:16:00,51.0,48.8,30.01,ENE,74,0.0,0.0,92,0.00,,,0.04,185,WeatherCatV1.14B232,2013-05-25 16:16:00,
2013-05-25 09:21:00,51.0,48.5,30.01,East,90,0.0,3.0,91,0.00,,,0.04,271,WeatherCatV1.14B232,2013-05-25 16:21:00,
2013-05-25 09:26:00,51.0,48.2,30.01,East,80,0.0,2.0,90,0.00,,,0.04,320,WeatherCatV1.14B232,2013-05-25 16:26:00,
2013-05-25 09:31:00,51.6,48.8,30.00,East,95,3.0,4.0,90,0.00,,,0.04,754,WeatherCatV1.14B232,2013-05-25 16:31:00,
2013-05-25 09:36:00,52.6,47.6,30.00,ENE,73,2.0,6.0,83,0.00,,,0.04,332,WeatherCatV1.14B232,2013-05-25 16:36:00,
2013-05-25 09:41:00,52.9,48.8,30.00,West,275,0.0,3.0,86,0.00,,,0.04,272,WeatherCatV1.14B232,2013-05-25 16:41:00,
2013-05-25 09:46:00,53.2,48.8,30.00,WNW,292,0.0,1.0,85,0.00,,,0.04,162,WeatherCatV1.14B232,2013-05-25 16:46:00,
2013-05-25 09:51:00,53.3,48.6,30.00,ESE,109,1.0,1.0,84,0.00,,,0.04,162,WeatherCatV1.14B232,2013-05-25 16:51:00,
2013-05-25 09:56:00,53.5,48.8,30.00,ESE,109,0.0,0.0,84,0.00,,,0.04,225,WeatherCatV1.14B232,2013-05-25 16:56:00,
2013-05-25 10:01:00,53.6,48.9,30.00,ESE,111,0.0,0.0,84,0.00,,,0.04,199,WeatherCatV1.14B232,2013-05-25 17:01:00,
2013-05-25 10:06:00,53.6,48.2,30.00,WSW,248,1.0,3.0,82,0.00,,,0.04,220,WeatherCatV1.14B232,2013-05-25 17:06:00,
2013-05-25 10:11:00,53.5,47.1,30.00,ESE,121,0.0,1.0,79,0.00,,,0.04,262,WeatherCatV1.14B232,2013-05-25 17:11:00,
2013-05-25 10:16:00,53.6,47.9,30.00,ESE,121,0.0,2.0,81,0.00,,,0.04,353,WeatherCatV1.14B232,2013-05-25 17:16:00,
2013-05-25 10:21:00,53.5,47.1,30.00,ENE,76,5.0,6.0,79,0.00,,,0.04,371,WeatherCatV1.14B232,2013-05-25 17:21:00,
2013-05-25 10:26:00,53.5,46.8,30.00,East,81,0.0,4.0,78,0.00,,,0.04,367,WeatherCatV1.14B232,2013-05-25 17:26:00,
2013-05-25 10:31:00,53.8,46.8,30.00,East,92,1.0,5.0,77,0.00,,,0.04,373,WeatherCatV1.14B232,2013-05-25 17:31:00,
2013-05-25 10:36:00,53.9,47.9,30.00,ESE,118,0.0,1.0,80,0.00,,,0.04,373,WeatherCatV1.14B232,2013-05-25 17:36:00,
2013-05-25 10:41:00,54.7,47.6,30.00,ESE,118,0.0,2.0,77,0.00,,,0.04,360,WeatherCatV1.14B232,2013-05-25 17:41:00,
2013-05-25 10:46:00,54.5,46.4,30.00,ESE,108,2.0,3.0,74,0.00,,,0.04,417,WeatherCatV1.14B232,2013-05-25 17:46:00,
2013-05-25 10:51:00,54.2,45.4,30.00,South,169,0.0,5.0,72,0.00,,,0.04,431,WeatherCatV1.14B232,2013-05-25 17:51:00,
2013-05-25 10:56:00,54.7,45.9,30.00,ENE,76,1.0,3.0,72,0.00,,,0.04,524,WeatherCatV1.14B232,2013-05-25 17:56:00,
2013-05-25 11:01:00,55.0,46.1,30.00,East,95,0.0,4.0,72,0.00,,,0.04,445,WeatherCatV1.14B232,2013-05-25 18:01:00,
2013-05-25 11:06:00,55.6,46.7,30.00,ENE,69,0.0,0.0,72,0.00,,,0.04,563,WeatherCatV1.14B232,2013-05-25 18:06:00,
2013-05-25 11:11:00,55.9,47.7,30.00,ENE,67,3.0,3.0,74,0.00,,,0.04,645,WeatherCatV1.14B232,2013-05-25 18:11:00,
2013-05-25 11:16:00,56.7,47.8,30.00,ENE,75,2.0,2.0,72,0.00,,,0.04,645,WeatherCatV1.14B232,2013-05-25 18:16:00,
2013-05-25 11:21:00,57.0,48.8,30.00,SE,126,1.0,1.0,74,0.00,,,0.04,443,WeatherCatV1.14B232,2013-05-25 18:21:00,
2013-05-25 11:26:00,56.7,46.3,30.00,ESE,107,5.0,5.0,68,0.00,,,0.04,404,WeatherCatV1.14B232,2013-05-25 18:26:00,
2013-05-25 11:31:00,56.0,45.6,30.00,NE,49,0.0,4.0,68,0.00,,,0.04,197,WeatherCatV1.14B232,2013-05-25 18:31:00,
2013-05-25 11:36:00,55.7,46.8,30.00,East,92,2.0,2.0,72,0.00,,,0.04,200,WeatherCatV1.14B232,2013-05-25 18:36:00,
2013-05-25 11:41:00,55.3,46.4,30.00,East,97,0.0,1.0,72,0.00,,,0.04,227,WeatherCatV1.14B232,2013-05-25 18:41:00,
2013-05-25 11:46:00,55.4,46.2,30.00,SSE,150,1.0,1.0,71,0.00,,,0.04,250,WeatherCatV1.14B232,2013-05-25 18:46:00,
2013-05-25 11:51:00,55.4,46.9,30.00,ESE,107,0.0,1.0,73,0.00,,,0.04,362,WeatherCatV1.14B232,2013-05-25 18:51:00,
2013-05-25 11:56:00,56.6,47.3,30.00,ESE,107,0.0,1.0,71,0.00,,,0.04,659,WeatherCatV1.14B232,2013-05-25 18:56:00,
2013-05-25 12:01:00,57.0,45.3,29.99,East,98,2.0,4.0,65,0.00,,,0.04,575,WeatherCatV1.14B232,2013-05-25 19:01:00,
2013-05-25 12:06:00,57.3,47.2,29.99,ESE,109,0.0,1.0,69,0.00,,,0.04,613,WeatherCatV1.14B232,2013-05-25 19:06:00,
2013-05-25 12:11:00,58.7,46.1,29.99,East,79,0.0,3.0,63,0.00,,,0.04,884,WeatherCatV1.14B232,2013-05-25 19:11:00,
2013-05-25 12:16:00,59.5,46.0,29.99,SE,140,0.0,2.0,61,0.00,,,0.04,288,WeatherCatV1.14B232,2013-05-25 19:16:00,
2013-05-25 12:21:00,58.4,46.7,29.99,East,80,0.0,0.0,65,0.00,,,0.04,179,WeatherCatV1.14B232,2013-05-25 19:21:00,
2013-05-25 12:26:00,57.6,46.3,29.99,East,80,0.0,2.0,66,0.00,,,0.04,169,WeatherCatV1.14B232,2013-05-25 19:26:00,
2013-05-25 12:31:00,56.7,46.3,29.99,ESE,112,1.0,2.0,68,0.00,,,0.04,207,WeatherCatV1.14B232,2013-05-25 19:31:00,
2013-05-25 12:36:00,56.6,46.2,29.99,ESE,112,0.0,1.0,68,0.00,,,0.04,325,WeatherCatV1.14B232,2013-05-25 19:36:00,
2013-05-25 12:41:00,57.0,47.3,29.99,NE,43,1.0,2.0,70,0.00,,,0.04,396,WeatherCatV1.14B232,2013-05-25 19:41:00,
2013-05-25 12:46:00,57.6,45.5,30.00,WSW,239,2.0,2.0,64,0.00,,,0.04,348,WeatherCatV1.14B232,2013-05-25 19:46:00,
2013-05-25 12:51:00,57.6,47.1,30.00,NNW,344,0.0,1.0,68,0.00,,,0.04,295,WeatherCatV1.14B232,2013-05-25 19:51:00,
2013-05-25 12:56:00,57.3,46.8,30.00,ESE,104,0.0,0.0,68,0.00,,,0.04,271,WeatherCatV1.14B232,2013-05-25 19:56:00,
2013-05-25 13:01:00,57.3,47.6,29.99,ESE,103,2.0,3.0,70,0.00,,,0.04,406,WeatherCatV1.14B232,2013-05-25 20:01:00,
2013-05-25 13:06:00,57.2,45.9,29.99,SE,130,0.0,2.0,66,0.00,,,0.04,471,WeatherCatV1.14B232,2013-05-25 20:06:00,
2013-05-25 13:11:00,58.6,46.9,29.99,East,80,0.0,5.0,65,0.00,,,0.04,701,WeatherCatV1.14B232,2013-05-25 20:11:00,
2013-05-25 13:16:00,59.2,46.6,29.99,West,260,0.0,1.0,63,0.00,,,0.04,510,WeatherCatV1.14B232,2013-05-25 20:16:00,
2013-05-25 13:21:00,58.9,45.5,29.99,NE,46,2.0,3.0,61,0.00,,,0.04,552,WeatherCatV1.14B232,2013-05-25 20:21:00,
2013-05-25 13:26:00,58.6,46.0,29.99,East,90,3.0,4.0,63,0.00,,,0.04,624,WeatherCatV1.14B232,2013-05-25 20:26:00,
2013-05-25 13:31:00,58.9,44.1,29.99,South,186,1.0,5.0,58,0.00,,,0.04,939,WeatherCatV1.14B232,2013-05-25 20:31:00,
2013-05-25 13:36:00,60.4,45.6,29.99,WSW,249,0.0,2.0,58,0.00,,,0.04,373,WeatherCatV1.14B232,2013-05-25 20:36:00,
2013-05-25 13:41:00,59.0,44.2,29.99,ESE,122,0.0,1.0,58,0.00,,,0.04,322,WeatherCatV1.14B232,2013-05-25 20:41:00,
2013-05-25 13:46:00,58.9,44.6,29.99,East,97,0.0,0.0,59,0.00,,,0.04,332,WeatherCatV1.14B232,2013-05-25 20:46:00,
2013-05-25 13:51:00,60.7,45.4,29.99,NE,51,0.0,1.0,57,0.00,,,0.04,383,WeatherCatV1.14B232,2013-05-25 20:51:00,
2013-05-25 13:56:00,59.9,46.8,29.99,East,92,3.0,4.0,62,0.00,,,0.04,519,WeatherCatV1.14B232,2013-05-25 20:56:00,
2013-05-25 14:01:00,60.2,47.6,29.99,ENE,77,2.0,3.0,63,0.00,,,0.04,446,WeatherCatV1.14B232,2013-05-25 21:01:00,
2013-05-25 14:06:00,60.5,44.2,29.99,NW,321,0.0,9.0,55,0.00,,,0.04,508,WeatherCatV1.14B232,2013-05-25 21:06:00,
2013-05-25 14:11:00,61.5,46.1,29.99,West,272,4.0,4.0,57,0.00,,,0.04,283,WeatherCatV1.14B232,2013-05-25 21:11:00,
2013-05-25 14:16:00,60.9,44.6,29.99,WSW,239,1.0,2.0,55,0.00,,,0.04,302,WeatherCatV1.14B232,2013-05-25 21:16:00,
2013-05-25 14:21:00,59.6,44.8,29.99,SSE,150,0.0,5.0,58,0.00,,,0.04,438,WeatherCatV1.14B232,2013-05-25 21:21:00,
2013-05-25 14:26:00,60.9,45.6,29.99,SW,229,6.0,6.0,57,0.00,,,0.04,601,WeatherCatV1.14B232,2013-05-25 21:26:00,
2013-05-25 14:31:00,61.3,45.5,29.98,SSW,213,3.0,9.0,56,0.00,,,0.04,654,WeatherCatV1.14B232,2013-05-25 21:31:00,
2013-05-25 14:36:00,60.9,45.1,29.98,SW,223,0.0,0.0,56,0.00,,,0.04,450,WeatherCatV1.14B232,2013-05-25 21:36:00,
2013-05-25 14:41:00,60.5,43.3,29.98,ESE,117,0.0,1.0,53,0.00,,,0.04,388,WeatherCatV1.14B232,2013-05-25 21:41:00,
2013-05-25 14:46:00,61.0,45.2,29.98,ESE,117,0.0,0.0,56,0.00,,,0.04,360,WeatherCatV1.14B232,2013-05-25 21:46:00,
2013-05-25 14:51:00,61.2,45.8,29.98,ESE,102,1.0,3.0,57,0.00,,,0.04,373,WeatherCatV1.14B232,2013-05-25 21:51:00,
2013-05-25 14:54:00,60.5,44.7,29.98,ESE,102,2.0,3.0,56,0.00,,,0.04,396,WeatherCatV1.14B232,2013-05-25 21:54:00,
2013-05-25 14:59:00,60.4,45.1,29.98,East,85,0.0,2.0,57,0.00,,,0.04,401,WeatherCatV1.14B232,2013-05-25 21:59:00,
2013-05-25 15:04:00,61.2,45.8,29.98,SSW,194,2.0,3.0,57,0.00,,,0.04,490,WeatherCatV1.14B232,2013-05-25 22:04:00,
2013-05-25 15:09:00,61.0,44.7,29.98,West,259,0.0,2.0,55,0.00,,,0.04,564,WeatherCatV1.14B232,2013-05-25 22:09:00,
2013-05-25 15:14:00,61.8,45.0,29.98,WSW,242,0.0,3.0,54,0.00,,,0.04,564,WeatherCatV1.14B232,2013-05-25 22:14:00,
2013-05-25 15:19:00,62.6,44.2,29.97,West,279,0.0,3.0,51,0.00,,,0.04,339,WeatherCatV1.14B232,2013-05-25 22:19:00,
2013-05-25 15:24:00,62.1,45.7,29.97,West,279,0.0,1.0,55,0.00,,,0.04,276,WeatherCatV1.14B232,2013-05-25 22:24:00,
2013-05-25 15:29:00,61.5,45.2,29.97,WSW,255,0.0,1.0,55,0.00,,,0.04,322,WeatherCatV1.14B232,2013-05-25 22:29:00,
2013-05-25 15:34:00,62.0,44.2,29.97,SW,224,0.0,5.0,52,0.00,,,0.04,962,WeatherCatV1.14B232,2013-05-25 22:34:00,
2013-05-25 15:39:00,62.3,44.9,29.97,SSE,163,2.0,2.0,53,0.00,,,0.04,520,WeatherCatV1.14B232,2013-05-25 22:39:00,
2013-05-25 15:44:00,62.1,44.3,29.97,East,90,0.0,0.0,52,0.00,,,0.04,696,WeatherCatV1.14B232,2013-05-25 22:44:00,
2013-05-25 15:49:00,62.1,44.3,29.97,East,90,0.0,1.0,52,0.00,,,0.04,740,WeatherCatV1.14B232,2013-05-25 22:49:00,
2013-05-25 15:54:00,62.7,44.8,29.97,ESE,105,0.0,0.0,52,0.00,,,0.04,508,WeatherCatV1.14B232,2013-05-25 22:54:00,
2013-05-25 15:59:00,63.2,45.8,29.97,ENE,62,0.0,0.0,53,0.00,,,0.04,900,WeatherCatV1.14B232,2013-05-25 22:59:00,
2013-05-25 16:03:00,64.0,45.0,29.97,WNW,288,0.0,3.0,50,0.00,,,0.04,907,WeatherCatV1.14B232,2013-05-25 23:03:00,
2013-05-25 16:08:00,63.1,45.2,29.97,SE,128,1.0,2.0,52,0.00,,,0.04,281,WeatherCatV1.14B232,2013-05-25 23:08:00,
2013-05-25 16:13:00,62.1,45.7,29.97,West,281,3.0,4.0,55,0.00,,,0.04,306,WeatherCatV1.14B232,2013-05-25 23:13:00,
2013-05-25 16:18:00,62.4,45.0,29.97,West,267,1.0,3.0,53,0.00,,,0.04,258,WeatherCatV1.14B232,2013-05-25 23:18:00,
2013-05-25 16:23:00,62.4,47.4,29.97,SSW,201,0.0,0.0,58,0.00,,,0.04,383,WeatherCatV1.14B232,2013-05-25 23:23:00,
2013-05-25 16:28:00,62.4,45.5,29.97,SSW,204,0.0,0.0,54,0.00,,,0.04,345,WeatherCatV1.14B232,2013-05-25 23:28:00,
2013-05-25 16:33:00,62.9,44.0,29.97,WSW,240,0.0,2.0,50,0.00,,,0.04,682,WeatherCatV1.14B232,2013-05-25 23:33:00,
2013-05-25 16:38:00,64.5,44.9,29.97,WNW,285,0.0,2.0,49,0.00,,,0.04,763,WeatherCatV1.14B232,2013-05-25 23:38:00,
2013-05-25 16:43:00,64.2,45.2,29.97,WSW,255,0.0,2.0,50,0.00,,,0.04,485,WeatherCatV1.14B232,2013-05-25 23:43:00,
2013-05-25 16:48:00,64.7,44.6,29.96,SW,231,0.0,3.0,48,0.00,,,0.04,798,WeatherCatV1.14B232,2013-05-25 23:48:00,
2013-05-25 16:53:00,64.2,44.6,29.96,East,100,0.0,2.0,49,0.00,,,0.04,708,WeatherCatV1.14B232,2013-05-25 23:53:00,
2013-05-25 16:58:00,64.2,45.2,29.96,South,185,1.0,3.0,50,0.00,,,0.04,724,WeatherCatV1.14B232,2013-05-25 23:58:00,
2013-05-25 17:03:00,63.5,44.0,29.96,WSW,238,0.0,3.0,49,0.00,,,0.04,213,WeatherCatV1.14B232,2013-05-26 00:03:00,
2013-05-25 17:08:00,62.6,44.7,29.96,WSW,242,0.0,2.0,52,0.00,,,0.04,680,WeatherCatV1.14B232,2013-05-26 00:08:00,
2013-05-25 17:13:00,63.9,44.4,29.96,SSE,161,0.0,3.0,49,0.00,,,0.04,715,WeatherCatV1.14B232,2013-05-26 00:13:00,
2013-05-25 17:18:00,63.9,45.9,29.96,South,172,1.0,5.0,52,0.00,,,0.04,230,WeatherCatV1.14B232,2013-05-26 00:18:00,
2013-05-25 17:23:00,62.4,45.5,29.96,WSW,239,1.0,2.0,54,0.00,,,0.04,155,WeatherCatV1.14B232,2013-05-26 00:23:00,
2013-05-25 17:28:00,61.5,43.7,29.96,WSW,238,0.0,3.0,52,0.00,,,0.04,155,WeatherCatV1.14B232,2013-05-26 00:28:00,
2013-05-25 17:33:00,60.9,43.7,29.96,SW,234,1.0,6.0,53,0.00,,,0.04,176,WeatherCatV1.14B232,2013-05-26 00:33:00,
2013-05-25 17:38:00,60.5,43.3,29.96,WSW,238,0.0,4.0,53,0.00,,,0.04,160,WeatherCatV1.14B232,2013-05-26 00:38:00,
2013-05-25 17:43:00,60.4,44.2,29.96,WSW,239,0.0,0.0,55,0.00,,,0.04,144,WeatherCatV1.14B232,2013-05-26 00:43:00,
2013-05-25 17:48:00,60.2,43.5,29.96,WSW,240,0.0,2.0,54,0.00,,,0.04,139,WeatherCatV1.14B232,2013-05-26 00:48:00,
2013-05-25 17:53:00,60.1,43.9,29.96,South,183,0.0,2.0,55,0.00,,,0.04,141,WeatherCatV1.14B232,2013-05-26 00:53:00,
2013-05-25 17:58:00,59.9,43.7,29.96,SW,234,0.0,4.0,55,0.00,,,0.04,183,WeatherCatV1.14B232,2013-05-26 00:58:00,
2013-05-25 18:03:00,60.2,45.4,29.96,SW,234,0.0,1.0,58,0.00,,,0.04,195,WeatherCatV1.14B232,2013-05-26 01:03:00,
2013-05-25 18:08:00,60.4,45.1,29.96,SW,236,0.0,2.0,57,0.00,,,0.04,209,WeatherCatV1.14B232,2013-05-26 01:08:00,
2013-05-25 18:13:00,60.7,44.4,29.96,SW,236,0.0,3.0,55,0.00,,,0.04,237,WeatherCatV1.14B232,2013-05-26 01:13:00,
2013-05-25 18:18:00,60.5,44.7,29.96,WSW,238,1.0,4.0,56,0.00,,,0.04,209,WeatherCatV1.14B232,2013-05-26 01:18:00,
2013-05-25 18:23:00,60.2,45.4,29.96,South,170,0.0,3.0,58,0.00,,,0.04,338,WeatherCatV1.14B232,2013-05-26 01:23:00,
2013-05-25 18:28:00,60.4,45.1,29.96,West,261,0.0,5.0,57,0.00,,,0.04,315,WeatherCatV1.14B232,2013-05-26 01:28:00,
2013-05-25 18:33:00,60.5,46.5,29.96,SSE,165,3.0,3.0,60,0.00,,,0.04,174,WeatherCatV1.14B232,2013-05-26 01:33:00,
2013-05-25 18:38:00,60.5,45.2,29.96,SW,218,0.0,1.0,57,0.00,,,0.04,144,WeatherCatV1.14B232,2013-05-26 01:38:00,
2013-05-25 18:43:00,60.4,46.4,29.96,SW,217,0.0,0.0,60,0.00,,,0.04,197,WeatherCatV1.14B232,2013-05-26 01:43:00,
2013-05-25 18:48:00,60.4,46.0,29.96,WSW,237,0.0,3.0,59,0.00,,,0.04,153,WeatherCatV1.14B232,2013-05-26 01:48:00,
2013-05-25 18:53:00,60.4,45.6,29.96,West,266,2.0,2.0,58,0.00,,,0.04,195,WeatherCatV1.14B232,2013-05-26 01:53:00,
2013-05-25 18:58:00,60.4,45.6,29.96,WSW,257,1.0,3.0,58,0.00,,,0.04,107,WeatherCatV1.14B232,2013-05-26 01:58:00,
2013-05-25 19:03:00,60.1,45.7,29.96,SW,234,0.0,2.0,59,0.00,,,0.04,104,WeatherCatV1.14B232,2013-05-26 02:03:00,
2013-05-25 19:08:00,59.8,45.0,29.96,SW,235,0.0,1.0,58,0.00,,,0.04,74,WeatherCatV1.14B232,2013-05-26 02:08:00,
2013-05-25 19:13:00,59.5,46.5,29.96,SW,235,0.0,0.0,62,0.00,,,0.04,54,WeatherCatV1.14B232,2013-05-26 02:13:00,
2013-05-25 19:18:00,59.0,45.6,29.96,SW,235,0.0,1.0,61,0.00,,,0.04,46,WeatherCatV1.14B232,2013-05-26 02:18:00,
2013-05-25 19:23:00,58.4,45.4,29.96,SW,235,0.0,0.0,62,0.00,,,0.04,49,WeatherCatV1.14B232,2013-05-26 02:23:00,
2013-05-25 19:28:00,58.0,44.6,29.96,WSW,242,0.0,3.0,61,0.00,,,0.04,53,WeatherCatV1.14B232,2013-05-26 02:28:00,
2013-05-25 19:33:00,57.6,45.5,29.96,WSW,242,0.0,0.0,64,0.00,,,0.04,49,WeatherCatV1.14B232,2013-05-26 02:33:00,
2013-05-25 19:38:00,57.3,45.6,29.96,WSW,242,0.0,0.0,65,0.00,,,0.04,44,WeatherCatV1.14B232,2013-05-26 02:38:00,
2013-05-25 19:43:00,57.2,45.5,29.96,WSW,242,0.0,0.0,65,0.00,,,0.04,40,WeatherCatV1.14B232,2013-05-26 02:43:00,
2013-05-25 19:48:00,57.2,46.3,29.96,WSW,242,0.0,0.0,67,0.00,,,0.04,33,WeatherCatV1.14B232,2013-05-26 02:48:00,
2013-05-25 19:53:00,56.9,45.7,29.96,WSW,242,0.0,0.0,66,0.00,,,0.04,26,WeatherCatV1.14B232,2013-05-26 02:53:00,
2013-05-25 19:58:00,56.7,46.3,29.96,WSW,242,0.0,0.0,68,0.00,,,0.04,19,WeatherCatV1.14B232,2013-05-26 02:58:00,
2013-05-25 20:03:00,56.5,46.1,29.96,WSW,242,0.0,0.0,68,0.00,,,0.04,16,WeatherCatV1.14B232,2013-05-26 03:03:00,
2013-05-25 20:08:00,56.2,46.2,29.96,WSW,242,0.0,0.0,69,0.00,,,0.04,14,WeatherCatV1.14B232,2013-05-26 03:08:00,
2013-05-25 20:13:00,55.7,45.7,29.96,WSW,242,0.0,0.0,69,0.00,,,0.04,14,WeatherCatV1.14B232,2013-05-26 03:13:00,
2013-05-25 20:18:00,55.3,46.1,29.96,WSW,242,0.0,0.0,71,0.00,,,0.04,14,WeatherCatV1.14B232,2013-05-26 03:18:00,
2013-05-25 20:23:00,54.8,46.7,29.96,WSW,242,0.0,0.0,74,0.00,,,0.04,11,WeatherCatV1.14B232,2013-05-26 03:23:00,
2013-05-25 20:28:00,54.5,46.4,29.96,WSW,242,0.0,0.0,74,0.00,,,0.04,9,WeatherCatV1.14B232,2013-05-26 03:28:00,
2013-05-25 20:33:00,54.4,47.0,29.96,WSW,242,0.0,0.0,76,0.00,,,0.04,7,WeatherCatV1.14B232,2013-05-26 03:33:00,
2013-05-25 20:38:00,54.2,47.1,29.96,WSW,242,0.0,0.0,77,0.00,,,0.04,5,WeatherCatV1.14B232,2013-05-26 03:38:00,
2013-05-25 20:43:00,54.1,47.4,29.96,WSW,242,0.0,0.0,78,0.00,,,0.04,5,WeatherCatV1.14B232,2013-05-26 03:43:00,
2013-05-25 20:48:00,53.9,47.5,29.96,WSW,242,0.0,0.0,79,0.00,,,0.04,0,WeatherCatV1.14B232,2013-05-26 03:48:00,
2013-05-25 20:53:00,53.9,47.5,29.96,WSW,242,0.0,0.0,79,0.00,,,0.04,0,WeatherCatV1.14B232,2013-05-26 03:53:00,
2013-05-25 20:58:00,53.9,47.2,29.96,WSW,242,0.0,0.0,78,0.00,,,0.04,0,WeatherCatV1.14B232,2013-05-26 03:58:00,
2013-05-25 21:01:00,53.9,47.2,29.96,WSW,242,0.0,0.0,78,0.00,,,0.04,0,WeatherCatV1.14B232,2013-05-26 04:01:00,
2013-05-25 21:06:00,53.9,47.2,29.96,WSW,242,0.0,0.0,78,0.00,,,0.04,0,WeatherCatV1.14B232,2013-05-26 04:06:00,
2013-05-25 21:11:00,53.8,47.1,29.96,WSW,242,0.0,0.0,78,0.00,,,0.04,0,WeatherCatV1.14B232,2013-05-26 04:11:00,
2013-05-25 21:16:00,53.8,47.4,29.96,WSW,242,0.0,0.0,79,0.00,,,0.04,0,WeatherCatV1.14B232,2013-05-26 04:16:00,
2013-05-25 21:21:00,53.6,47.2,29.96,WSW,242,0.0,0.0,79,0.00,,,0.04,0,WeatherCatV1.14B232,2013-05-26 04:21:00,
2013-05-25 21:26:00,53.5,47.1,29.96,WSW,242,0.0,0.0,79,0.00,,,0.04,0,WeatherCatV1.14B232,2013-05-26 04:26:00,
2013-05-25 21:31:00,53.3,47.3,29.96,WSW,242,0.0,0.0,80,0.00,,,0.04,0,WeatherCatV1.14B232,2013-05-26 04:31:00,
2013-05-25 21:36:00,53.2,47.2,29.96,WSW,242,0.0,0.0,80,0.00,,,0.04,0,WeatherCatV1.14B232,2013-05-26 04:36:00,
2013-05-25 21:41:00,53.1,47.1,29.96,WSW,242,0.0,0.0,80,0.00,,,0.04,0,WeatherCatV1.14B232,2013-05-26 04:41:00,
2013-05-25 21:46:00,52.9,46.9,29.96,WSW,242,0.0,0.0,80,0.00,,,0.04,0,WeatherCatV1.14B232,2013-05-26 04:46:00,
2013-05-25 21:51:00,52.8,47.1,29.96,WSW,242,0.0,0.0,81,0.00,,,0.04,0,WeatherCatV1.14B232,2013-05-26 04:51:00,
2013-05-25 21:56:00,52.6,46.9,29.96,WSW,242,0.0,0.0,81,0.00,,,0.04,0,WeatherCatV1.14B232,2013-05-26 04:56:00,
2013-05-25 22:01:00,52.5,46.8,29.96,WSW,242,0.0,0.0,81,0.00,,,0.04,0,WeatherCatV1.14B232,2013-05-26 05:01:00,
2013-05-25 22:06:00,52.3,46.6,29.96,WSW,242,0.0,0.0,81,0.00,,,0.04,0,WeatherCatV1.14B232,2013-05-26 05:06:00,
2013-05-25 22:11:00,52.2,46.9,29.96,WSW,242,0.0,0.0,82,0.00,,,0.04,0,WeatherCatV1.14B232,2013-05-26 05:11:00,
2013-05-25 22:16:00,52.2,46.9,29.96,WSW,242,0.0,0.0,82,0.00,,,0.04,0,WeatherCatV1.14B232,2013-05-26 05:16:00,
2013-05-25 22:21:00,52.0,46.7,29.96,WSW,242,0.0,0.0,82,0.00,,,0.04,0,WeatherCatV1.14B232,2013-05-26 05:21:00,
2013-05-25 22:26:00,51.9,46.6,29.96,WSW,242,0.0,0.0,82,0.00,,,0.04,0,WeatherCatV1.14B232,2013-05-26 05:26:00,
2013-05-25 22:31:00,51.9,46.9,29.96,WSW,242,0.0,0.0,83,0.00,,,0.04,0,WeatherCatV1.14B232,2013-05-26 05:31:00,
2013-05-25 22:36:00,51.7,47.0,29.96,WSW,242,0.0,0.0,84,0.00,,,0.04,0,WeatherCatV1.14B232,2013-05-26 05:36:00,
2013-05-25 22:41:00,51.6,46.9,29.96,WSW,242,0.0,0.0,84,0.00,,,0.04,0,WeatherCatV1.14B232,2013-05-26 05:41:00,
2013-05-25 22:46:00,51.6,47.2,29.96,WSW,242,0.0,0.0,85,0.00,,,0.04,0,WeatherCatV1.14B232,2013-05-26 05:46:00,
2013-05-25 22:51:00,51.4,47.0,29.96,WSW,242,0.0,0.0,85,0.00,,,0.04,0,WeatherCatV1.14B232,2013-05-26 05:51:00,
2013-05-25 22:56:00,51.3,46.9,29.96,WSW,242,0.0,0.0,85,0.00,,,0.04,0,WeatherCatV1.14B232,2013-05-26 05:56:00,
2013-05-25 23:01:00,51.3,46.9,29.96,WSW,242,0.0,0.0,85,0.00,,,0.04,0,WeatherCatV1.14B232,2013-05-26 06:01:00,
2013-05-25 23:06:00,51.1,47.1,29.96,WSW,242,0.0,0.0,86,0.00,,,0.04,0,WeatherCatV1.14B232,2013-05-26 06:06:00,
2013-05-25 23:11:00,51.0,47.0,29.96,WSW,242,0.0,0.0,86,0.00,,,0.04,0,WeatherCatV1.14B232,2013-05-26 06:11:00,
2013-05-25 23:16:00,50.8,47.1,29.95,WSW,242,0.0,0.0,87,0.00,,,0.04,0,WeatherCatV1.14B232,2013-05-26 06:16:00,
2013-05-25 23:21:00,50.7,47.0,29.95,WSW,242,0.0,0.0,87,0.00,,,0.04,0,WeatherCatV1.14B232,2013-05-26 06:21:00,
2013-05-25 23:26:00,50.5,46.8,29.95,WSW,242,0.0,0.0,87,0.00,,,0.04,0,WeatherCatV1.14B232,2013-05-26 06:26:00,
2013-05-25 23:31:00,50.4,46.7,29.95,WSW,242,0.0,0.0,87,0.00,,,0.04,0,WeatherCatV1.14B232,2013-05-26 06:31:00,
2013-05-25 23:36:00,50.2,46.5,29.95,WSW,242,0.0,0.0,87,0.00,,,0.04,0,WeatherCatV1.14B232,2013-05-26 06:36:00,
2013-05-25 23:41:00,50.1,46.4,29.95,WSW,242,0.0,0.0,87,0.00,,,0.04,0,WeatherCatV1.14B232,2013-05-26 06:41:00,
2013-05-25 23:46:00,49.9,46.2,29.95,WSW,242,0.0,0.0,87,0.00,,,0.04,0,WeatherCatV1.14B232,2013-05-26 06:46:00,
2013-05-25 23:51:00,49.9,46.2,29.95,WSW,242,0.0,0.0,87,0.00,,,0.04,0,WeatherCatV1.14B232,2013-05-26 06:51:00,
2013-05-25 23:56:00,49.8,46.1,29.95,WSW,242,0.0,0.0,87,0.00,,,0.04,0,WeatherCatV1.14B232,2013-05-26 06:56:00,